Weather History for KMTJ - January, 2014

Change the Weather History Date:

Friday, January 10, 2014

  Actual Average Record
Temperature  
Mean Temperature 28 °F 26 °F  
Max Temperature 38 °F 37 °F 52 °F (2005)
Min Temperature 17 °F 14 °F -2 °F (2011)
Degree Days  
Heating Degree Days 37 40  
Month to date heating degree days 417 400  
Since 1 July heating degree days 3186 3008  
Cooling Degree Days 0 0  
Month to date cooling degree days 0 0  
Year to date cooling degree days 0 0  
Moisture  
Dew Point 20 °F    
Average Humidity 72    
Maximum Humidity 96    
Minimum Humidity 48    
Precipitation  
Precipitation 0.00 in 0.02 in 0.00 in (2015)
Month to date precipitation T 0.22  
Year to date precipitation T 0.22  
Sea Level Pressure  
Sea Level Pressure 30.04 in    
Wind  
Wind Speed 4 mph (ESE)    
Max Wind Speed 10 mph    
Max Gust Speed 12 mph    
Visibility 9 miles    
Events      
T = Trace of Precipitation, MM = Missing Value Source: NWS Daily Summary

Daily Weather History Graph

Daily Weather History Graph

Search for Another Location

Airport or City:

Trip Planner

Search our weather history database for the weather conditions in past years. The results will help you decide how hot, cold, wet, or windy it might be!

Date:

Astronomy

Jan. 10, 2014 Rise Set
Actual Time 7:28 AM MST 5:09 PM MST
Civil Twilight 6:59 AM MST 5:39 PM MST
Nautical Twilight 6:26 AM MST 6:11 PM MST
Astronomical Twilight 5:54 AM MST 6:43 PM MST
Moon 1:14 PM MST (1/10) 2:40 AM MST (1/10)
Length of Visible Light 10h 39m
Length of Day
9h 40m
Waxing Gibbous, 75% of the Moon is Illuminated
Jan 10
Waxing Gibbous
Jan 15
Full
Jan 23
Last Quarter
Jan 30
New
Feb 6
First Quarter

Hourly Weather History & Observations

Time (MST) Temp. Windchill Dew Point Humidity Pressure Visibility Wind Dir Wind Speed Gust Speed Precip Events Conditions
12:53 AM 25.0 °F - 23.0 °F 92% 30.00 in 5.0 mi Calm Calm - N/A   Clear
1:53 AM 23.0 °F - 21.0 °F 92% 30.02 in 4.0 mi Calm Calm - N/A   Mostly Cloudy
2:53 AM 19.9 °F 11.1 °F 17.1 °F 89% 30.04 in 5.0 mi SSE 6.9 mph - N/A   Clear
3:53 AM 18.0 °F 7.7 °F 15.1 °F 88% 30.05 in 10.0 mi SE 8.1 mph - N/A   Clear
4:53 AM 21.0 °F 10.6 °F 17.1 °F 85% 30.04 in 10.0 mi SSE 9.2 mph - N/A   Overcast
5:53 AM 23.0 °F 13.9 °F 18.0 °F 81% 30.00 in 10.0 mi SE 8.1 mph - N/A   Overcast
6:53 AM 24.1 °F 13.7 °F 18.0 °F 77% 29.98 in 10.0 mi ESE 10.4 mph - N/A   Overcast
7:53 AM 27.0 °F - 18.0 °F 69% 29.99 in 10.0 mi Calm Calm - N/A   Overcast
8:53 AM 25.0 °F 20.7 °F 19.0 °F 78% 30.03 in 10.0 mi Variable 3.5 mph - N/A   Overcast
9:53 AM 27.0 °F - 19.0 °F 72% 30.04 in 10.0 mi Calm Calm - N/A   Overcast
10:53 AM 30.0 °F - 19.0 °F 64% 30.04 in 10.0 mi Calm Calm - N/A   Overcast
11:53 AM 30.0 °F 26.5 °F 19.9 °F 66% 30.01 in 10.0 mi Variable 3.5 mph - N/A   Overcast
12:53 PM 33.1 °F - 21.0 °F 61% 29.99 in 10.0 mi Calm Calm - N/A   Overcast
1:53 PM 36.0 °F 32.1 °F 19.9 °F 52% 29.97 in 10.0 mi NNE 4.6 mph - N/A   Mostly Cloudy
2:53 PM 37.9 °F 34.4 °F 19.9 °F 48% 29.96 in 10.0 mi North 4.6 mph - N/A   Scattered Clouds
3:53 PM 37.0 °F 34.5 °F 19.9 °F 50% 29.99 in 10.0 mi North 3.5 mph - N/A   Clear
4:53 PM 35.1 °F - 19.0 °F 52% 30.02 in 10.0 mi Calm Calm - N/A   Partly Cloudy
5:53 PM 28.0 °F 22.8 °F 19.9 °F 72% 30.05 in 10.0 mi ESE 4.6 mph - N/A   Overcast
6:53 PM 32.0 °F 26.4 °F 21.0 °F 64% 30.06 in 9.0 mi ESE 5.8 mph - N/A   Overcast
7:53 PM 28.9 °F 23.9 °F 21.0 °F 72% 30.11 in 9.0 mi SSE 4.6 mph - N/A   Mostly Cloudy
8:53 PM 30.0 °F - 21.9 °F 72% 30.14 in 10.0 mi Calm Calm - N/A   Overcast
9:53 PM 30.9 °F - 23.0 °F 72% 30.17 in 10.0 mi Calm Calm - N/A   Overcast
10:53 PM 32.0 °F 25.6 °F 23.0 °F 69% 30.17 in 10.0 mi SSE 6.9 mph - N/A   Overcast
11:53 PM 33.1 °F 26.9 °F 24.1 °F 70% 30.19 in 10.0 mi ESE 6.9 mph - N/A   Overcast